Location: Novokuznetsk
(53.7500°N, 87.1000°E)
Time: 04:41:31
(UTC+06:00)

ISS - Pass Details

Date: 21 July 2018
Orbit: 402 x 408 km, 51.6° (Epoch: 16 July)

Event Time Altitude Azimuth Distance (km) Brightness Sun altitude
Rises 22:16:21 0° 237° (WSW) 2,317 0.0 -11.4°
Reaches altitude 10° 22:18:30 10° 228° (SW) 1,460 -1.1 -11.5°
Maximum altitude 22:21:33 37° 160° (SSE) 654 -3.3 -11.7°
Drops below altitude 10° 22:24:37 10° 91° (E) 1,468 -1.3 -11.9°
Sets 22:26:47 0° 83° (E) 2,331 -0.2 -12.1°
